Weather History for Grand Forks, ND

Change the Weather History Date:

Saturday, October 20, 2012

  Actual Average Record
Temperature  
Mean Temperature 46 °F 41 °F  
Max Temperature 51 °F 52 °F 79 °F (1978)
Min Temperature 40 °F 31 °F 17 °F (2002)
Degree Days  
Heating Degree Days 19 24  
Month to date heating degree days 413 386  
Since 1 July heating degree days 694 737  
Cooling Degree Days 0 0  
Month to date cooling degree days 0 0  
Year to date cooling degree days 572 378  
Moisture  
Dew Point 41 °F    
Average Humidity 87    
Maximum Humidity 100    
Minimum Humidity 74    
Precipitation  
Precipitation 0.00 in 0.06 in 0.30 in (2009)
Month to date precipitation 1.68 1.37  
Year to date precipitation 15.46 18.65  
Snow  
Snow 0.00 in 0.10 in 0.10 in (1991)
Month to date snowfall 2.7 0.7  
Since 1 July snowfall 2.7 0.7  
Since 1 September snowfall 2.7 0.7  
Snow Depth 0.00 in    
Sea Level Pressure  
Sea Level Pressure 29.67 in    
Wind  
Wind Speed 12 mph (South)    
Max Wind Speed 23 mph    
Max Gust Speed 29 mph    
Visibility 10 miles    
Events      
T = Trace of Precipitation, MM = Missing Value Source: NWS Daily Summary

Daily Weather History Graph

Daily Weather History Graph

Search for Another Location

Airport:

Trip Planner

Search our weather history database for the weather conditions in past years. The results will help you decide how hot, cold, wet, or windy it might be!

Date:

Astronomy

Oct. 20, 2012 Rise Set
Actual Time 7:56 AM CDT 6:29 PM CDT
Civil Twilight 7:24 AM CDT 7:01 PM CDT
Nautical Twilight 6:48 AM CDT 7:37 PM CDT
Astronomical Twilight 6:12 AM CDT 8:13 PM CDT
Moon 1:46 PM CDT (10/20) 11:05 PM CDT (10/20)
Length of Visible Light 11h 36m
Length of Day
10h 33m
Waxing Crescent, 34% of the Moon is Illuminated
Oct 20
Waxing Crescent
Oct 21
First Quarter
Oct 29
Full
Nov 6
Last Quarter
Nov 13
New

Hourly Weather History & Observations

Time (CDT) Temp. Windchill Dew Point Humidity Pressure Visibility Wind Dir Wind Speed Gust Speed Precip Events Conditions
12:53 AM 41.0 °F - 39.2 °F 93% 29.69 in 10.0 mi Calm Calm - N/A   Overcast
1:19 AM 41.0 °F 39.0 °F 39.2 °F 93% 29.70 in 10.0 mi SW 3.5 mph - N/A   Overcast
1:31 AM 41.0 °F 39.0 °F 39.2 °F 93% 29.70 in 10.0 mi WSW 3.5 mph - N/A   Overcast
1:53 AM 41.0 °F 39.0 °F 39.9 °F 96% 29.73 in 10.0 mi SSW 3.5 mph - N/A   Overcast
2:11 AM 41.0 °F 39.0 °F 39.2 °F 93% 29.70 in 10.0 mi SSW 3.5 mph - N/A   Overcast
2:53 AM 39.9 °F - 39.0 °F 97% 29.72 in 10.0 mi Calm Calm - N/A   Overcast
3:24 AM 39.2 °F 37.0 °F 39.2 °F 100% 29.70 in 10.0 mi SE 3.5 mph - N/A   Mostly Cloudy
3:53 AM 39.9 °F 36.7 °F 39.0 °F 97% 29.72 in 10.0 mi South 4.6 mph - N/A   Overcast
4:20 AM 39.2 °F 35.0 °F 39.2 °F 100% 29.69 in 4.0 mi SSE 5.8 mph - N/A   Overcast
4:53 AM 39.2 °F 34.2 °F 39.2 °F 100% 29.68 in 10.0 mi SSE 6.9 mph - N/A   Overcast
5:53 AM 41.0 °F 36.4 °F 39.9 °F 96% 29.70 in 10.0 mi South 6.9 mph - N/A   Overcast
6:53 AM 41.0 °F 36.4 °F 39.9 °F 96% 29.69 in 10.0 mi South 6.9 mph - N/A   Overcast
7:43 AM 42.8 °F 36.2 °F 39.2 °F 87% 29.67 in 10.0 mi South 12.7 mph - N/A   Overcast
7:53 AM 42.1 °F 35.2 °F 39.0 °F 89% 29.70 in 10.0 mi South 12.7 mph - N/A   Overcast
8:30 AM 42.8 °F 37.0 °F 39.2 °F 87% 29.67 in 10.0 mi South 10.4 mph - N/A   Overcast
8:53 AM 42.1 °F 36.1 °F 39.0 °F 89% 29.69 in 10.0 mi South 10.4 mph - N/A   Overcast
9:53 AM 43.0 °F 35.7 °F 39.0 °F 86% 29.68 in 10.0 mi South 15.0 mph - N/A   Overcast
10:16 AM 42.8 °F 35.1 °F 39.2 °F 87% 29.66 in 10.0 mi South 16.1 mph - N/A   Overcast
10:53 AM 43.0 °F 34.5 °F 39.0 °F 86% 29.69 in 10.0 mi South 19.6 mph - N/A   Overcast
11:53 AM 45.0 °F 38.2 °F 41.0 °F 86% 29.67 in 10.0 mi South 15.0 mph - N/A   Overcast
12:53 PM 46.9 °F - 41.0 °F 80% 29.66 in 10.0 mi South 19.6 mph 28.8 mph N/A   Mostly Cloudy
1:53 PM 46.9 °F - 41.0 °F 80% 29.64 in 10.0 mi South 18.4 mph 24.2 mph N/A   Mostly Cloudy
2:53 PM 48.9 °F - 42.1 °F 77% 29.62 in 10.0 mi South 17.3 mph 25.3 mph N/A   Mostly Cloudy
3:33 PM 50.0 °F - 44.6 °F 82% 29.59 in 10.0 mi South 17.3 mph 24.2 mph N/A   Scattered Clouds
3:53 PM 48.0 °F - 43.0 °F 83% 29.61 in 10.0 mi SSE 23.0 mph 27.6 mph N/A   Mostly Cloudy
4:53 PM 50.0 °F - 43.0 °F 77% 29.60 in 10.0 mi South 13.8 mph 23.0 mph N/A   Mostly Cloudy
5:53 PM 48.9 °F - 44.1 °F 83% 29.60 in 10.0 mi South 16.1 mph 24.2 mph N/A   Mostly Cloudy
6:53 PM 48.0 °F - 44.1 °F 86% 29.60 in 10.0 mi SSE 13.8 mph - N/A   Mostly Cloudy
7:53 PM 46.9 °F - 44.1 °F 90% 29.62 in 10.0 mi SSE 8.1 mph - N/A   Scattered Clouds
8:53 PM 46.9 °F - 44.1 °F 90% 29.62 in 10.0 mi South 11.5 mph 19.6 mph N/A   Scattered Clouds
9:53 PM 46.9 °F - 44.1 °F 90% 29.64 in 10.0 mi South 13.8 mph - N/A   Mostly Cloudy
10:53 PM 46.0 °F 41.0 °F 43.0 °F 89% 29.66 in 10.0 mi South 10.4 mph - N/A   Overcast
11:53 PM 46.9 °F - 44.1 °F 90% 29.64 in 10.0 mi South 11.5 mph - N/A   Scattered Clouds